TimePDT,TemperatureF,Dew PointF,Humidity,Sea Level PressureIn,VisibilityMPH,Wind Direction,Wind SpeedMPH,Gust SpeedMPH,PrecipitationIn,Events,Conditions,WindDirDegrees,DateUTC
12:53 AM,41.0,35.1,79,30.04,10.0,SE,6.9,-,N/A,,Clear,130,2013-03-16 07:53:00
1:53 AM,39.9,36.0,86,30.03,10.0,SSE,6.9,-,N/A,,Clear,160,2013-03-16 08:53:00
2:53 AM,39.9,36.0,86,30.01,10.0,South,4.6,-,N/A,,Overcast,170,2013-03-16 09:53:00
3:53 AM,39.0,36.0,89,30.00,10.0,Calm,Calm,-,N/A,,Overcast,0,2013-03-16 10:53:00
4:53 AM,37.9,36.0,93,29.99,10.0,South,8.1,-,N/A,,Overcast,170,2013-03-16 11:53:00
5:53 AM,39.0,36.0,89,29.99,10.0,SSE,5.8,-,N/A,,Overcast,150,2013-03-16 12:53:00
6:53 AM,39.0,36.0,89,29.98,10.0,SE,3.5,-,N/A,,Overcast,140,2013-03-16 13:53:00
7:53 AM,39.0,37.0,93,29.98,10.0,SE,5.8,-,N/A,,Mostly Cloudy,140,2013-03-16 14:53:00
8:53 AM,41.0,37.9,89,29.97,10.0,South,5.8,-,N/A,,Mostly Cloudy,170,2013-03-16 15:53:00
9:53 AM,43.0,37.0,80,29.97,10.0,South,9.2,-,N/A,,Overcast,180,2013-03-16 16:53:00
10:53 AM,45.0,37.0,74,29.95,10.0,SW,13.8,-,N/A,,Overcast,220,2013-03-16 17:53:00
11:53 AM,46.0,37.0,71,29.94,10.0,SSW,10.4,-,N/A,,Mostly Cloudy,200,2013-03-16 18:53:00
12:28 PM,46.4,37.4,71,29.89,10.0,SSW,12.7,-,N/A,,Overcast,210,2013-03-16 19:28:00
12:53 PM,48.9,37.9,66,29.90,10.0,South,11.5,-,N/A,,Overcast,190,2013-03-16 19:53:00
1:53 PM,52.0,34.0,50,29.85,10.0,SSW,23.0,29.9,N/A,,Overcast,200,2013-03-16 20:53:00
2:53 PM,52.0,30.0,43,29.81,10.0,SW,23.0,26.5,N/A,,Scattered Clouds,230,2013-03-16 21:53:00
3:53 PM,48.0,35.1,61,29.79,10.0,SSW,20.7,25.3,0.00,,Mostly Cloudy,200,2013-03-16 22:53:00
4:53 PM,48.9,35.1,59,29.77,10.0,SSW,16.1,-,N/A,,Scattered Clouds,210,2013-03-16 23:53:00
5:53 PM,48.0,32.0,54,29.75,10.0,SW,18.4,26.5,N/A,,Clear,220,2013-03-17 00:53:00
6:53 PM,44.1,34.0,68,29.74,10.0,SSW,12.7,-,N/A,,Mostly Cloudy,200,2013-03-17 01:53:00
7:53 PM,44.1,35.1,71,29.73,10.0,South,15.0,24.2,0.00,Rain,Light Rain,180,2013-03-17 02:53:00
8:10 PM,42.8,35.6,76,29.71,10.0,WSW,26.5,34.5,0.01,,Overcast,240,2013-03-17 03:10:00
8:19 PM,41.0,35.6,81,29.71,10.0,SW,18.4,34.5,0.01,Rain,Light Rain,230,2013-03-17 03:19:00
8:41 PM,39.2,35.6,87,29.70,10.0,SW,12.7,-,0.01,Rain,Light Rain,220,2013-03-17 03:41:00
8:53 PM,39.0,35.1,86,29.73,10.0,SSW,11.5,-,0.01,,Mostly Cloudy,200,2013-03-17 03:53:00
9:53 PM,37.9,35.1,89,29.70,10.0,South,10.4,-,N/A,,Mostly Cloudy,180,2013-03-17 04:53:00
10:53 PM,39.0,35.1,86,29.68,10.0,SSW,11.5,-,N/A,,Mostly Cloudy,200,2013-03-17 05:53:00
11:53 PM,37.0,32.0,82,29.67,10.0,SSW,9.2,-,0.01,,Overcast,210,2013-03-17 06:53:00